QPF
0.00 0.00 0.00 0.00 0.00 0.00 0.00 0.00 0.00 0.00 0.00 0.00 0.00 0.00 0.00 0.00 0.00 0.00 0.00 0.00 0.00 0.00 0.00 0.00 0.00 0.00 0.01 0.02 0.02 0.01 0.01 0.03 0.03 0.04 0.05 0.04 0.05 0.05 0.05 0.05 0.07 0.08 0.07
0.00 0.00 0.00 0.00 0.00 0.00 0.00 0.00 0.00 0.00 0.00 0.00 0.00 0.00 0.00 0.00 0.00 0.00 0.00 0.00 0.00 0.00 0.00 0.00 0.00 0.00 0.01 0.01 0.02 0.02 0.02 0.03 0.04 0.05 0.07 0.08 0.08 0.06 0.03 0.04 0.07 0.08 0.10
0.00 0.00 0.00 0.00 0.00 0.00 0.00 0.00 0.00 0.00 0.00 0.00 0.00 0.00 0.00 0.00 0.00 0.00 0.00 0.00 0.00 0.00 0.00 0.00 0.00 0.00 0.00 0.01 0.01 0.02 0.02 0.04 0.06 0.06 0.07 0.09 0.09 0.07 0.05 0.05 0.06 0.07 0.08
0.00 0.00 0.00 0.00 0.00 0.00 0.00 0.00 0.00 0.00 0.00 0.00 0.00 0.00 0.00 0.00 0.00 0.00 0.00 0.00 0.00 0.00 0.00 0.00 0.00 0.00 0.00 0.00 0.00 0.01 0.03 0.05 0.06 0.06 0.06 0.06 0.08 0.09 0.07 0.06 0.05 0.06 0.07
0.00 0.00 0.00 0.00 0.00 0.00 0.00 0.00 0.00 0.00 0.00 0.00 0.00 0.00 0.00 0.00 0.00 0.00 0.00 0.00 0.00 0.00 0.00 0.00 0.00 0.00 0.00 0.00 0.00 0.01 0.02 0.04 0.05 0.05 0.05 0.05 0.07 0.08 0.07 0.06 0.07 0.06 0.06
0.00 0.00 0.00 0.01 0.01 0.00 0.00 0.00 0.00 0.00 0.00 0.00 0.00 0.00 0.00 0.00 0.00 0.00 0.00 0.00 0.00 0.00 0.00 0.00 0.00 0.00 0.00 0.00 0.01 0.01 0.01 0.02 0.02 0.03 0.04 0.05 0.07 0.08 0.08 0.07 0.07 0.07 0.06
0.00 0.00 0.00 0.00 0.00 0.00 0.00 0.00 0.00 0.00 0.00 0.00 0.00 0.00 0.00 0.00 0.00 0.00 0.00 0.00 0.00 0.00 0.00 0.00 0.00 0.00 0.00 0.01 0.01 0.01 0.01 0.01 0.03 0.03 0.03 0.04 0.05 0.08 0.09 0.07 0.06 0.06 0.05
0.00 0.00 0.00 0.00 0.00 0.00 0.00 0.00 0.00 0.00 0.00 0.00 0.00 0.00 0.00 0.00 0.00 0.00 0.00 0.00 0.00 0.00 0.00 0.00 0.00 0.00 0.00 0.01 0.01 0.01 0.00 0.01 0.01 0.01 0.02 0.03 0.03 0.05 0.08 0.08 0.07 0.06 0.06
0.00 0.00 0.00 0.00 0.00 0.00 0.00 0.00 0.00 0.00 0.00 0.00 0.00 0.00 0.00 0.00 0.00 0.00 0.00 0.00 0.00 0.00 0.00 0.00 0.00 0.00 0.00 0.00 0.01 0.00 0.00 0.00 0.00 0.01 0.01 0.02 0.02 0.02 0.03 0.05 0.07 0.07 0.06
0.00 0.00 0.00 0.00 0.00 0.00 0.00 0.00 0.00 0.00 0.00 0.00 0.00 0.00 0.00 0.00 0.00 0.00 0.00 0.00 0.00 0.00 0.00 0.00 0.00 0.00 0.00 0.00 0.01 0.01 0.00 0.00 0.01 0.00 0.00 0.01 0.02 0.02 0.02 0.03 0.05 0.07 0.07
0.00 0.00 0.00 0.00 0.00 0.00 0.00 0.00 0.00 0.00 0.00 0.00 0.00 0.00 0.00 0.00 0.00 0.00 0.00 0.00 0.00 0.00 0.00 0.00 0.00 0.00 0.00 0.00 0.00 0.01 0.01 0.00 0.00 0.00 0.00 0.00 0.01 0.02 0.02 0.02 0.03 0.05 0.08
0.00 0.00 0.00 0.00 0.00 0.00 0.00 0.00 0.00 0.00 0.00 0.00 0.00 0.00 0.00 0.00 0.00 0.00 0.00 0.00 0.00 0.00 0.00 0.00 0.00 0.00 0.00 0.00 0.00 0.00 0.00 0.00 0.00 0.00 0.00 0.00 0.00 0.01 0.02 0.02 0.02 0.04 0.06
0.00 0.00 0.00 0.00 0.00 0.00 0.00 0.00 0.00 0.00 0.00 0.00 0.00 0.00 0.00 0.00 0.00 0.00 0.00 0.00 0.00 0.00 0.00 0.00 0.00 0.00 0.00 0.00 0.00 0.00 0.00 0.00 0.00 0.00 0.00 0.00 0.00 0.01 0.01 0.02 0.03 0.04 0.05
0.00 0.00 0.00 0.00 0.00 0.00 0.00 0.00 0.00 0.00 0.00 0.00 0.00 0.00 0.00 0.00 0.00 0.00 0.00 0.00 0.00 0.00 0.00 0.00 0.00 0.00 0.00 0.00 0.00 0.00 0.00 0.00 0.00 0.00 0.00 0.00 0.00 0.01 0.01 0.02 0.03 0.02 0.03
0.00 0.00 0.00 0.00 0.00 0.00 0.00 0.00 0.00 0.00 0.00 0.00 0.00 0.00 0.00 0.00 0.00 0.00 0.00 0.00 0.00 0.00 0.00 0.00 0.00 0.00 0.00 0.00 0.00 0.00 0.00 0.00 0.00 0.00 0.00 0.00 0.00 0.00 0.01 0.01 0.02 0.02 0.02
0.00 0.00 0.00 0.00 0.00 0.00 0.00 0.00 0.00 0.00 0.00 0.00 0.00 0.00 0.00 0.00 0.00 0.00 0.00 0.00 0.00 0.00 0.00 0.00 0.00 0.00 0.00 0.00 0.00 0.00 0.00 0.00 0.00 0.00 0.00 0.00 0.00 0.00 0.00 0.00 0.01 0.01 0.02
0.00 0.00 0.00 0.00 0.00 0.00 0.00 0.00 0.00 0.00 0.00 0.00 0.00 0.00 0.00 0.00 0.00 0.00 0.00 0.00 0.00 0.00 0.00 0.00 0.00 0.00 0.00 0.00 0.00 0.00 0.00 0.00 0.00 0.00 0.01 0.01 0.00 0.00 0.00 0.00 0.00 0.01 0.01
0.00 0.00 0.00 0.00 0.00 0.00 0.00 0.00 0.00 0.00 0.00 0.00 0.00 0.00 0.00 0.00 0.00 0.00 0.00 0.00 0.00 0.00 0.00 0.00 0.00 0.00 0.00 0.00 0.00 0.00 0.00 0.00 0.00 0.00 0.01 0.01 0.01 0.00 0.00 0.00 0.01 0.01 0.01
0.00 0.00 0.00 0.00 0.00 0.00 0.00 0.00 0.00 0.00 0.00 0.00 0.00 0.00 0.00 0.00 0.00 0.00 0.00 0.00 0.00 0.00 0.00 0.00 0.00 0.00 0.00 0.00 0.00 0.00 0.00 0.00 0.00 0.00 0.01 0.01 0.01 0.00 0.00 0.00 0.00 0.00 0.00
0.00 0.00 0.00 0.00 0.00 0.00 0.00 0.00 0.00 0.00 0.00 0.00 0.00 0.00 0.00 0.00 0.00 0.00 0.00 0.00 0.00 0.00 0.00 0.00 0.01 0.01 0.00 0.00 0.00 0.00 0.00 0.00 0.00 0.01 0.01 0.01 0.01 0.01 0.01 0.00 0.01 0.01 0.00
0.00 0.00 0.00 0.00 0.00 0.00 0.00 0.00 0.00 0.00 0.00 0.00 0.00 0.00 0.00 0.00 0.00 0.00 0.00 0.00 0.00 0.00 0.00 0.00 0.01 0.01 0.01 0.00 0.00 0.00 0.01 0.01 0.01 0.01 0.01 0.01 0.01 0.02 0.01 0.01 0.01 0.01 0.01
0.00 0.00 0.00 0.00 0.00 0.00 0.00 0.00 0.00 0.00 0.00 0.00 0.00 0.00 0.00 0.00 0.00 0.00 0.00 0.00 0.00 0.00 0.00 0.01 0.01 0.01 0.01 0.01 0.01 0.01 0.01 0.02 0.02 0.01 0.02 0.02 0.03 0.03 0.02 0.01 0.01 0.01 0.00
0.00 0.00 0.00 0.00 0.00 0.00 0.00 0.00 0.00 0.00 0.00 0.00 0.00 0.00 0.00 0.00 0.00 0.00 0.00 0.00 0.00 0.00 0.00 0.01 0.01 0.01 0.01 0.01 0.01 0.01 0.02 0.02 0.03 0.02 0.03 0.03 0.04 0.04 0.02 0.02 0.01 0.01 0.01
0.00 0.00 0.00 0.00 0.00 0.00 0.00 0.00 0.00 0.00 0.00 0.00 0.00 0.00 0.00 0.00 0.00 0.00 0.00 0.00 0.00 0.00 0.00 0.01 0.01 0.02 0.02 0.01 0.02 0.02 0.02 0.03 0.04 0.04 0.03 0.04 0.03 0.03 0.02 0.02 0.02 0.02 0.01
0.00 0.00 0.00 0.00 0.00 0.00 0.00 0.00 0.00 0.00 0.00 0.00 0.00 0.00 0.00 0.00 0.00 0.00 0.00 0.00 0.00 0.00 0.00 0.01 0.01 0.02 0.02 0.02 0.03 0.03 0.03 0.04 0.05 0.06 0.05 0.04 0.03 0.03 0.02 0.03 0.03 0.03 0.02
0.00 0.00 0.00 0.00 0.00 0.00 0.00 0.00 0.00 0.00 0.00 0.00 0.00 0.00 0.00 0.00 0.00 0.00 0.00 0.00 0.00 0.00 0.00 0.00 0.01 0.01 0.02 0.02 0.02 0.02 0.03 0.04 0.06 0.07 0.06 0.05 0.05 0.04 0.03 0.04 0.04 0.04 0.03
MSLP
1010.59 1010.74 1010.93 1011.14 1011.37 1011.63 1011.92 1012.26 1012.63 1013.02 1013.42 1013.80 1014.13 1014.38 1014.54 1014.61 1014.61 1014.56 1014.48 1014.41 1014.37 1014.38 1014.42 1014.50 1014.59 1014.68 1014.73 1014.72 1014.66 1014.54 1014.38 1014.18 1013.97 1013.77 1013.59 1013.43 1013.30 1013.17 1013.06 1012.93 1012.80 1012.66 1012.54
1010.62 1010.72 1010.87 1011.05 1011.26 1011.50 1011.78 1012.10 1012.47 1012.88 1013.31 1013.73 1014.10 1014.41 1014.62 1014.72 1014.74 1014.69 1014.61 1014.52 1014.46 1014.45 1014.49 1014.57 1014.68 1014.77 1014.84 1014.85 1014.81 1014.71 1014.56 1014.39 1014.21 1014.05 1013.91 1013.81 1013.72 1013.63 1013.54 1013.43 1013.30 1013.14 1012.98
1010.82 1010.85 1010.95 1011.09 1011.26 1011.46 1011.69 1011.98 1012.32 1012.71 1013.14 1013.58 1013.98 1014.33 1014.58 1014.72 1014.77 1014.73 1014.65 1014.56 1014.49 1014.46 1014.49 1014.57 1014.67 1014.78 1014.86 1014.89 1014.86 1014.78 1014.66 1014.51 1014.37 1014.25 1014.16 1014.10 1014.06 1014.03 1013.98 1013.89 1013.77 1013.62 1013.45
1011.20 1011.19 1011.23 1011.32 1011.43 1011.57 1011.74 1011.96 1012.24 1012.58 1012.98 1013.40 1013.80 1014.16 1014.44 1014.62 1014.69 1014.67 1014.60 1014.51 1014.43 1014.39 1014.40 1014.47 1014.58 1014.69 1014.78 1014.83 1014.83 1014.78 1014.69 1014.58 1014.47 1014.39 1014.34 1014.32 1014.33 1014.33 1014.32 1014.26 1014.17 1014.03 1013.86
1011.79 1011.73 1011.73 1011.77 1011.82 1011.88 1011.97 1012.09 1012.29 1012.55 1012.87 1013.24 1013.62 1013.97 1014.25 1014.44 1014.52 1014.52 1014.45 1014.36 1014.27 1014.22 1014.22 1014.28 1014.39 1014.51 1014.62 1014.70 1014.73 1014.72 1014.67 1014.60 1014.53 1014.48 1014.46 1014.47 1014.50 1014.53 1014.54 1014.51 1014.44 1014.32 1014.16
1012.56 1012.47 1012.44 1012.43 1012.41 1012.40 1012.39 1012.41 1012.49 1012.64 1012.87 1013.15 1013.47 1013.77 1014.03 1014.21 1014.29 1014.29 1014.22 1014.12 1014.02 1013.96 1013.95 1014.00 1014.11 1014.24 1014.37 1014.49 1014.57 1014.60 1014.60 1014.57 1014.54 1014.52 1014.53 1014.55 1014.59 1014.63 1014.65 1014.63 1014.57 1014.45 1014.30
1013.43 1013.34 1013.29 1013.24 1013.17 1013.08 1012.97 1012.89 1012.85 1012.88 1012.98 1013.16 1013.39 1013.62 1013.83 1013.97 1014.03 1014.01 1013.93 1013.82 1013.70 1013.62 1013.60 1013.64 1013.75 1013.89 1014.06 1014.21 1014.34 1014.43 1014.48 1014.50 1014.51 1014.52 1014.53 1014.56 1014.60 1014.63 1014.64 1014.62 1014.56 1014.45 1014.31
1014.34 1014.25 1014.19 1014.12 1014.01 1013.85 1013.66 1013.48 1013.32 1013.23 1013.22 1013.29 1013.41 1013.55 1013.69 1013.78 1013.80 1013.75 1013.64 1013.50 1013.36 1013.26 1013.22 1013.25 1013.35 1013.50 1013.68 1013.87 1014.04 1014.18 1014.28 1014.35 1014.39 1014.43 1014.45 1014.48 1014.51 1014.54 1014.54 1014.51 1014.45 1014.35 1014.21
1015.18 1015.11 1015.06 1014.97 1014.83 1014.63 1014.38 1014.12 1013.88 1013.69 1013.57 1013.54 1013.56 1013.61 1013.67 1013.69 1013.66 1013.57 1013.42 1013.25 1013.08 1012.94 1012.86 1012.87 1012.95 1013.09 1013.28 1013.49 1013.68 1013.86 1014.00 1014.10 1014.17 1014.22 1014.26 1014.30 1014.32 1014.34 1014.35 1014.32 1014.27 1014.18 1014.07
1015.87 1015.84 1015.80 1015.71 1015.56 1015.34 1015.07 1014.77 1014.47 1014.22 1014.04 1013.92 1013.86 1013.84 1013.82 1013.77 1013.68 1013.54 1013.35 1013.13 1012.91 1012.73 1012.61 1012.57 1012.61 1012.72 1012.88 1013.07 1013.27 1013.45 1013.61 1013.72 1013.81 1013.88 1013.93 1013.97 1014.01 1014.04 1014.06 1014.06 1014.04 1013.99 1013.90
1016.38 1016.39 1016.37 1016.30 1016.16 1015.95 1015.68 1015.38 1015.08 1014.81 1014.60 1014.43 1014.32 1014.24 1014.17 1014.07 1013.92 1013.72 1013.48 1013.22 1012.95 1012.71 1012.53 1012.42 1012.39 1012.43 1012.54 1012.68 1012.83 1012.98 1013.11 1013.22 1013.31 1013.38 1013.44 1013.50 1013.56 1013.62 1013.68 1013.73 1013.75 1013.76 1013.73
1016.71 1016.76 1016.77 1016.73 1016.62 1016.45 1016.22 1015.96 1015.69 1015.44 1015.23 1015.07 1014.93 1014.82 1014.71 1014.56 1014.37 1014.13 1013.85 1013.53 1013.21 1012.90 1012.65 1012.45 1012.33 1012.28 1012.29 1012.34 1012.41 1012.48 1012.56 1012.62 1012.68 1012.74 1012.80 1012.88 1012.97 1013.07 1013.18 1013.29 1013.39 1013.47 1013.52
1016.90 1016.98 1017.03 1017.02 1016.96 1016.84 1016.68 1016.48 1016.28 1016.09 1015.92 1015.78 1015.65 1015.53 1015.39 1015.22 1015.00 1014.72 1014.40 1014.04 1013.66 1013.30 1012.96 1012.68 1012.45 1012.28 1012.16 1012.09 1012.04 1012.01 1011.99 1011.98 1011.98 1012.00 1012.05 1012.13 1012.24 1012.39 1012.56 1012.74 1012.92 1013.08 1013.21
1016.97 1017.10 1017.19 1017.22 1017.21 1017.16 1017.07 1016.96 1016.83 1016.71 1016.60 1016.50 1016.40 1016.28 1016.14 1015.95 1015.71 1015.41 1015.06 1014.67 1014.25 1013.83 1013.43 1013.05 1012.72 1012.42 1012.17 1011.95 1011.77 1011.60 1011.47 1011.35 1011.27 1011.23 1011.24 1011.31 1011.43 1011.60 1011.81 1012.05 1012.30 1012.54 1012.75
1016.99 1017.16 1017.29 1017.37 1017.41 1017.42 1017.40 1017.37 1017.32 1017.28 1017.22 1017.16 1017.09 1016.98 1016.84 1016.64 1016.39 1016.08 1015.72 1015.31 1014.87 1014.41 1013.95 1013.51 1013.08 1012.67 1012.29 1011.94 1011.61 1011.31 1011.04 1010.81 1010.63 1010.51 1010.45 1010.47 1010.57 1010.74 1010.96 1011.23 1011.53 1011.82 1012.09
1016.98 1017.20 1017.35 1017.47 1017.56 1017.62 1017.66 1017.69 1017.71 1017.72 1017.72 1017.69 1017.63 1017.53 1017.38 1017.18 1016.92 1016.61 1016.25 1015.84 1015.40 1014.93 1014.45 1013.96 1013.46 1012.98 1012.50 1012.03 1011.58 1011.15 1010.76 1010.41 1010.12 1009.90 1009.76 1009.70 1009.74 1009.86 1010.06 1010.31 1010.61 1010.92 1011.24
1016.96 1017.21 1017.40 1017.55 1017.66 1017.76 1017.84 1017.92 1017.97 1018.01 1018.03 1018.01 1017.95 1017.85 1017.69 1017.48 1017.22 1016.91 1016.56 1016.17 1015.74 1015.29 1014.81 1014.31 1013.80 1013.27 1012.73 1012.19 1011.65 1011.12 1010.63 1010.17 1009.77 1009.45 1009.20 1009.05 1008.99 1009.03 1009.15 1009.35 1009.60 1009.89 1010.20
1016.91 1017.20 1017.42 1017.59 1017.72 1017.83 1017.93 1018.02 1018.08 1018.13 1018.14 1018.11 1018.04 1017.92 1017.74 1017.52 1017.25 1016.95 1016.61 1016.25 1015.86 1015.44 1014.99 1014.52 1014.02 1013.49 1012.93 1012.36 1011.78 1011.19 1010.63 1010.09 1009.61 1009.18 1008.83 1008.56 1008.39 1008.30 1008.31 1008.40 1008.56 1008.79 1009.06
1016.84 1017.17 1017.40 1017.58 1017.71 1017.82 1017.92 1018.00 1018.06 1018.09 1018.08 1018.03 1017.92 1017.77 1017.57 1017.33 1017.05 1016.75 1016.43 1016.10 1015.75 1015.37 1014.98 1014.55 1014.09 1013.59 1013.05 1012.49 1011.90 1011.30 1010.70 1010.12 1009.57 1009.07 1008.62 1008.24 1007.93 1007.71 1007.58 1007.53 1007.57 1007.69 1007.89
1016.74 1017.09 1017.34 1017.52 1017.65 1017.75 1017.83 1017.89 1017.93 1017.94 1017.90 1017.82 1017.68 1017.50 1017.26 1017.00 1016.71 1016.40 1016.09 1015.78 1015.46 1015.13 1014.78 1014.40 1013.99 1013.54 1013.05 1012.52 1011.96 1011.38 1010.78 1010.18 1009.60 1009.04 1008.51 1008.03 1007.61 1007.25 1006.97 1006.77 1006.67 1006.67 1006.76
1016.60 1016.97 1017.23 1017.40 1017.52 1017.61 1017.68 1017.73 1017.75 1017.73 1017.67 1017.56 1017.40 1017.18 1016.91 1016.62 1016.31 1015.99 1015.67 1015.36 1015.06 1014.75 1014.44 1014.10 1013.74 1013.34 1012.89 1012.41 1011.89 1011.35 1010.77 1010.18 1009.59 1009.00 1008.42 1007.87 1007.35 1006.87 1006.46 1006.12 1005.88 1005.74 1005.72
1016.44 1016.81 1017.07 1017.24 1017.36 1017.44 1017.50 1017.54 1017.55 1017.53 1017.45 1017.32 1017.13 1016.89 1016.60 1016.27 1015.93 1015.59 1015.25 1014.92 1014.61 1014.31 1014.00 1013.68 1013.34 1012.97 1012.57 1012.13 1011.65 1011.14 1010.60 1010.04 1009.46 1008.87 1008.27 1007.67 1007.08 1006.51 1005.99 1005.54 1005.17 1004.91 1004.78
1016.24 1016.61 1016.86 1017.03 1017.15 1017.24 1017.30 1017.35 1017.36 1017.34 1017.27 1017.13 1016.93 1016.66 1016.34 1015.99 1015.61 1015.23 1014.86 1014.50 1014.16 1013.83 1013.50 1013.17 1012.83 1012.46 1012.07 1011.65 1011.20 1010.73 1010.22 1009.69 1009.14 1008.56 1007.96 1007.35 1006.73 1006.11 1005.52 1004.97 1004.50 1004.14 1003.91
1016.01 1016.36 1016.61 1016.78 1016.91 1017.01 1017.09 1017.15 1017.18 1017.17 1017.10 1016.97 1016.76 1016.48 1016.14 1015.76 1015.34 1014.92 1014.50 1014.09 1013.70 1013.32 1012.95 1012.59 1012.21 1011.83 1011.43 1011.01 1010.56 1010.10 1009.62 1009.12 1008.59 1008.04 1007.46 1006.86 1006.23 1005.59 1004.96 1004.36 1003.82 1003.37 1003.05
1015.73 1016.07 1016.31 1016.48 1016.62 1016.74 1016.84 1016.93 1016.98 1016.98 1016.92 1016.79 1016.58 1016.29 1015.93 1015.51 1015.06 1014.59 1014.12 1013.66 1013.22 1012.78 1012.36 1011.94 1011.52 1011.10 1010.66 1010.22 1009.76 1009.30 1008.82 1008.33 1007.83 1007.31 1006.75 1006.17 1005.56 1004.92 1004.28 1003.65 1003.06 1002.56 1002.17
1015.41 1015.72 1015.95 1016.13 1016.28 1016.42 1016.54 1016.64 1016.71 1016.73 1016.67 1016.54 1016.31 1016.01 1015.63 1015.19 1014.71 1014.20 1013.69 1013.18 1012.69 1012.20 1011.73 1011.26 1010.78 1010.31 1009.83 1009.34 1008.86 1008.37 1007.89 1007.40 1006.91 1006.40 1005.87 1005.31 1004.72 1004.09 1003.45 1002.81 1002.20 1001.65 1001.21
Thickness
5782 5783 5781 5780 5778 5775 5771 5766 5761 5758 5754 5749 5745 5741 5739 5739 5738 5736 5733 5730 5728 5725 5723 5720 5717 5715 5710 5707 5704 5700 5698 5697 5698 5695 5694 5698 5703 5704 5705 5708 5710 5713 5716
5777 5777 5778 5776 5774 5771 5769 5765 5761 5757 5753 5748 5746 5743 5740 5738 5737 5734 5732 5729 5726 5723 5721 5718 5715 5713 5709 5705 5702 5698 5694 5694 5695 5691 5688 5686 5690 5696 5702 5703 5706 5709 5712
5772 5772 5772 5771 5771 5768 5767 5765 5761 5756 5752 5748 5745 5742 5738 5735 5733 5731 5729 5728 5725 5722 5719 5717 5714 5712 5708 5703 5701 5697 5693 5689 5691 5692 5686 5681 5678 5685 5693 5698 5701 5704 5707
5772 5770 5769 5768 5768 5767 5767 5764 5760 5756 5751 5747 5742 5737 5732 5729 5730 5729 5728 5727 5725 5722 5719 5716 5713 5711 5708 5703 5700 5698 5694 5691 5687 5689 5690 5688 5686 5681 5682 5690 5695 5699 5702
5768 5766 5766 5766 5766 5765 5763 5761 5757 5753 5750 5746 5741 5736 5733 5731 5731 5730 5727 5726 5725 5722 5719 5716 5713 5710 5707 5704 5700 5697 5695 5692 5689 5687 5687 5688 5688 5687 5682 5680 5686 5692 5696
5764 5763 5763 5763 5761 5760 5759 5756 5752 5749 5747 5744 5740 5736 5732 5730 5728 5726 5724 5723 5723 5722 5720 5717 5713 5711 5707 5704 5701 5698 5696 5693 5691 5689 5688 5686 5684 5683 5683 5681 5682 5684 5690
5758 5757 5756 5755 5754 5754 5753 5752 5748 5744 5743 5741 5739 5737 5734 5731 5728 5726 5724 5722 5721 5720 5719 5717 5714 5711 5708 5705 5702 5699 5697 5695 5692 5690 5689 5688 5687 5687 5685 5682 5681 5682 5687
5754 5753 5753 5752 5751 5750 5750 5748 5746 5742 5741 5739 5738 5737 5735 5732 5729 5728 5726 5723 5722 5721 5720 5717 5714 5711 5709 5706 5703 5700 5698 5697 5694 5693 5691 5689 5689 5689 5687 5683 5680 5678 5681
5750 5750 5750 5751 5750 5749 5748 5747 5744 5741 5740 5738 5737 5736 5734 5731 5729 5728 5726 5724 5723 5722 5720 5717 5714 5712 5709 5706 5703 5700 5698 5697 5695 5693 5691 5690 5689 5689 5688 5687 5684 5678 5675
5747 5746 5746 5748 5748 5748 5747 5746 5743 5741 5739 5737 5735 5734 5732 5730 5728 5727 5724 5723 5722 5720 5718 5716 5714 5712 5710 5707 5703 5700 5698 5696 5694 5693 5691 5689 5689 5689 5688 5687 5686 5684 5679
5742 5742 5743 5744 5745 5745 5744 5742 5741 5738 5736 5735 5734 5732 5730 5729 5727 5724 5722 5721 5720 5718 5717 5715 5713 5711 5709 5707 5703 5700 5698 5695 5694 5693 5691 5689 5689 5687 5687 5686 5685 5684 5682
5741 5740 5740 5740 5739 5738 5738 5737 5737 5735 5733 5732 5731 5729 5727 5725 5723 5722 5721 5720 5718 5717 5716 5714 5712 5710 5708 5706 5703 5700 5698 5695 5693 5692 5690 5689 5689 5686 5685 5684 5684 5683 5684
5738 5737 5735 5734 5733 5733 5733 5732 5732 5731 5730 5728 5726 5724 5723 5721 5719 5718 5718 5717 5716 5715 5714 5712 5710 5708 5706 5704 5703 5700 5698 5696 5693 5692 5689 5688 5687 5684 5683 5683 5682 5682 5683
5734 5732 5730 5730 5730 5730 5729 5728 5727 5727 5726 5724 5721 5718 5717 5716 5714 5714 5713 5712 5712 5711 5710 5709 5707 5706 5704 5702 5700 5698 5696 5695 5694 5692 5690 5687 5685 5683 5682 5681 5680 5680 5680
5729 5728 5726 5726 5726 5725 5724 5723 5722 5722 5722 5718 5715 5713 5712 5711 5709 5708 5707 5706 5706 5706 5705 5704 5703 5702 5700 5698 5695 5693 5691 5690 5690 5690 5689 5687 5686 5684 5682 5680 5678 5677 5676
5725 5725 5724 5722 5721 5721 5719 5718 5717 5717 5716 5713 5709 5708 5706 5704 5702 5701 5700 5699 5699 5699 5698 5697 5696 5695 5695 5693 5690 5687 5685 5684 5684 5684 5685 5685 5684 5683 5681 5679 5677 5675 5673
5721 5720 5719 5718 5717 5717 5715 5712 5712 5711 5709 5705 5703 5700 5698 5696 5695 5694 5692 5691 5691 5691 5690 5690 5689 5688 5687 5686 5684 5681 5679 5678 5678 5679 5679 5680 5682 5680 5678 5676 5675 5673 5673
5717 5716 5715 5713 5713 5713 5711 5708 5707 5704 5701 5697 5695 5693 5691 5689 5688 5686 5684 5684 5684 5683 5683 5682 5682 5680 5680 5679 5677 5674 5672 5671 5672 5673 5673 5673 5675 5676 5674 5672 5671 5670 5669
5715 5712 5711 5709 5708 5705 5704 5701 5699 5696 5693 5689 5686 5685 5683 5681 5679 5678 5677 5677 5676 5675 5675 5675 5673 5672 5672 5671 5668 5666 5663 5662 5663 5665 5667 5667 5668 5670 5670 5667 5666 5665 5666
5711 5707 5705 5703 5700 5698 5696 5692 5689 5686 5683 5680 5678 5677 5676 5673 5671 5670 5669 5668 5667 5666 5666 5665 5664 5663 5662 5662 5659 5656 5653 5652 5653 5655 5658 5659 5660 5661 5661 5660 5661 5660 5661
5704 5701 5697 5693 5691 5689 5687 5683 5679 5676 5674 5673 5670 5668 5667 5665 5664 5662 5660 5658 5657 5655 5654 5654 5653 5652 5651 5650 5648 5644 5641 5640 5640 5642 5645 5648 5650 5651 5652 5652 5655 5657 5657
5697 5693 5688 5685 5683 5681 5677 5673 5669 5668 5667 5664 5661 5659 5658 5657 5655 5651 5649 5646 5643 5641 5639 5638 5638 5637 5637 5635 5633 5631 5629 5628 5627 5629 5632 5635 5638 5640 5643 5644 5647 5650 5651
5690 5686 5681 5677 5675 5672 5668 5663 5661 5660 5657 5654 5651 5649 5648 5645 5643 5639 5635 5631 5628 5625 5623 5620 5619 5619 5618 5618 5617 5615 5614 5613 5612 5615 5619 5622 5624 5627 5631 5635 5638 5640 5641
5683 5678 5673 5669 5665 5663 5660 5656 5654 5651 5647 5643 5641 5638 5636 5633 5629 5624 5620 5616 5612 5608 5605 5602 5600 5599 5599 5599 5598 5598 5597 5597 5597 5600 5604 5607 5611 5613 5618 5624 5627 5631 5634
5675 5670 5665 5660 5657 5654 5651 5648 5644 5640 5636 5632 5629 5626 5622 5618 5614 5610 5605 5601 5597 5592 5587 5584 5581 5580 5580 5581 5580 5577 5579 5580 5581 5582 5587 5591 5595 5600 5606 5611 5616 5620 5624
5667 5661 5657 5652 5648 5645 5641 5638 5634 5629 5624 5620 5616 5612 5607 5603 5599 5595 5593 5590 5584 5581 5575 5571 5566 5566 5565 5566 5565 5564 5563 5564 5565 5566 5571 5577 5582 5588 5594 5599 5604 5610 5615